GW3787 Weather Reports


Display with metric or nautical units.
time (UTC)temp
F
wind
direction
speed
MPH
gust
MPH
rain 1hr
in
rain 24hr
in
rain mn
in
humidity
%
barometer
mb
20260510084552 40 67 0.0 0.0 0.00 0.00 0.00 83 1015.6
20260510083042 41 67 0.0 1.0 0.00 0.00 0.00 83 1015.7
20260510081544 41 67 0.0 4.0 0.00 0.00 0.00 84 1015.7
20260510080056 41 67 0.0 1.0 0.00 0.00 0.00 83 1015.7
20260510074541 41 67 0.0 3.0 0.00 0.00 0.00 83 1015.6
20260510073047 41 67 0.0 0.0 0.00 0.00 0.00 84 1015.8
20260510071539 41 67 0.0 2.0 0.00 0.00 0.00 84 1015.8
20260510070045 40 67 0.0 0.0 0.00 0.00 0.00 81 1015.6
20260510064537 41 67 0.0 0.0 0.00 0.00 0.00 80 1015.7
20260510063035 43 67 0.0 1.0 0.00 0.00 0.00 76 1015.8
20260510061525 45 67 0.0 0.0 0.00 0.00 0.00 76 1015.6
20260510060034 46 67 0.0 0.0 0.00 0.00 0.00 75 1015.7
20260510054523 46 67 0.0 4.0 0.00 0.00 0.00 74 1015.4
20260510053020 47 67 0.0 0.0 0.00 0.00 0.00 73 1015.5
20260510051519 47 67 0.0 0.0 0.00 0.00 0.00 75 1015.4
20260510050022 47 67 0.0 2.0 0.00 0.00 0.00 73 1015.2
20260510044518 46 67 0.0 3.0 0.00 0.00 0.00 77 1015.2
20260510043014 45 67 0.0 0.0 0.00 0.00 0.00 74 1015.1
20260510041512 46 67 0.0 1.0 0.00 0.00 0.00 71 1014.9
20260510040011 48 67 0.0 1.0 0.00 0.00 0.00 69 1014.7
20260510034504 48 67 0.0 3.0 0.00 0.00 0.00 71 1014.5
20260510033002 48 67 1.0 4.0 0.00 0.00 0.00 71 1014.2
20260510031605 48 67 0.0 2.0 0.00 0.00 0.00 69 1014.0
20260510024557 55 39 0.0 0.0 0.00 0.00 0.00 59 1013.4
20260510023054 57 39 0.0 0.0 0.00 0.00 0.00 55 1013.2
20260510021642 59 39 0.0 0.0 0.00 0.00 0.00 55 1013.0
20260510020058 60 39 0.0 0.0 0.00 0.00 0.00 55 1012.9
20260510014558 59 39 0.0 0.0 0.00 0.00 0.00 57 1012.9
20260510013101 60 39 0.0 0.0 0.00 0.00 0.00 55 1012.9
20260510011552 60 39 0.0 0.0 0.00 0.00 0.00 54 1012.8
20260510010057 61 39 0.0 0.0 0.00 0.00 0.00 49 1012.8
20260510004550 61 39 0.0 0.0 0.00 0.00 0.00 52 1012.8
20260510003051 62 39 0.0 4.0 0.00 0.00 0.00 51 1012.8
20260510001550 61 360 1.0 4.0 0.00 0.00 0.00 55 1012.8
20260510000050 59 347 0.0 3.0 0.00 0.00 0.00 58 1013.0
20260509234549 59 347 2.0 5.0 0.00 0.00 0.00 57 1013.0
20260509233048 61 250 0.0 3.0 0.00 0.00 0.00 53 1013.0
20260509231550 61 281 0.0 2.0 0.00 0.00 0.00 47 1012.7
20260509230050 62 282 1.0 7.0 0.00 0.00 0.00 44 1012.7
20260509224545 62 247 0.0 5.0 0.00 0.00 0.00 40 1012.7
20260509223048 63 232 0.0 11.0 0.00 0.00 0.00 40 1012.7
20260509221545 63 261 6.0 11.0 0.00 0.00 0.00 40 1012.7
20260509220047 63 207 5.0 11.0 0.00 0.00 0.00 40 1012.8
20260509214545 63 216 4.0 9.0 0.00 0.00 0.00 39 1012.9
20260509213048 63 289 0.0 4.0 0.00 0.00 0.00 39 1012.9
20260509211540 62 292 0.0 3.0 0.00 0.00 0.00 39 1012.9
20260509210045 62 289 3.0 9.0 0.00 0.00 0.00 39 1013.0
20260509204539 61 292 0.0 3.0 0.00 0.00 0.00 41 1013.1
20260509203037 61 292 0.0 4.0 0.00 0.00 0.00 40 1013.0
20260509201539 62 275 0.0 6.0 0.00 0.00 0.00 38 1012.8
20260509200037 62 249 0.0 11.0 0.00 0.00 0.00 41 1012.6
20260509194547 61 221 0.0 2.0 0.00 0.00 0.00 38 1012.6
20260509193035 62 221 3.0 7.0 0.00 0.00 0.00 37 1012.7
20260509191531 61 259 1.0 8.0 0.00 0.00 0.00 38 1012.7
20260509190028 60 323 0.0 5.0 0.00 0.00 0.00 39 1012.7
20260509184528 60 285 1.0 5.0 0.00 0.00 0.00 39 1012.7
20260509183027 60 239 0.0 9.0 0.00 0.00 0.00 38 1012.6
20260509181525 60 242 0.0 7.0 0.00 0.00 0.00 38 1012.5
20260509180025 60 294 0.0 8.0 0.00 0.00 0.00 38 1012.4
20260509174522 60 292 3.0 9.0 0.00 0.00 0.00 39 1012.2
20260509173026 60 10 0.0 4.0 0.00 0.00 0.00 39 1012.2
20260509171514 60 351 0.0 3.0 0.00 0.00 0.00 39 1012.1
20260509170014 60 351 0.0 3.0 0.00 0.00 0.00 39 1012.1
20260509164511 60 37 0.0 5.0 0.00 0.00 0.00 38 1012.1
20260509163010 60 31 1.0 6.0 0.00 0.00 0.00 40 1012.0
20260509161506 59 31 2.0 8.0 0.00 0.00 0.00 42 1011.9
20260509160004 59 31 0.0 4.0 0.00 0.00 0.00 41 1011.7
20260509154502 59 31 1.0 6.0 0.00 0.00 0.00 42 1011.5
20260509153105 59 47 2.0 7.0 0.00 0.00 0.00 43 1011.4
20260509151556 58 356 0.0 3.0 0.00 0.00 0.00 46 1011.3
20260509150053 57 356 1.0 5.0 0.00 0.00 0.00 48 1011.2
20260509144551 56 62 0.0 3.0 0.00 0.00 0.00 52 1011.1
20260509143045 54 62 0.0 1.0 0.00 0.00 0.00 54 1010.9
20260509141544 53 62 0.0 0.0 0.00 0.00 0.00 55 1010.9
20260509140053 53 62 1.0 4.0 0.00 0.00 0.00 54 1010.7
20260509134537 52 25 0.0 1.0 0.00 0.00 0.00 56 1010.7
20260509133032 51 25 0.0 0.0 0.00 0.00 0.00 58 1010.4
20260509131528 50 39 1.0 5.0 0.00 0.00 0.00 57 1010.2
20260509130023 49 64 0.0 2.0 0.00 0.00 0.00 60 1010.3
20260509124522 48 64 1.0 3.0 0.00 0.00 0.00 62 1010.0
20260509123019 48 64 0.0 1.0 0.00 0.00 0.00 61 1010.0
20260509121516 48 64 0.0 2.0 0.00 0.00 0.00 61 1009.9
20260509120014 48 64 0.0 0.0 0.00 0.00 0.00 61 1009.6
20260509114511 48 64 0.0 0.0 0.00 0.00 0.00 61 1009.4
20260509113010 48 63 0.0 0.0 0.00 0.00 0.00 61 1009.2
20260509111508 49 63 0.0 0.0 0.00 0.00 0.00 60 1009.1
20260509110007 49 63 0.0 3.0 0.00 0.00 0.00 60 1009.0
20260509104506 49 63 0.0 0.0 0.00 0.00 0.00 60 1008.9
20260509103005 49 63 0.0 2.0 0.00 0.00 0.00 61 1008.8
20260509101505 49 63 0.0 2.0 0.00 0.00 0.00 62 1008.6
20260509100002 48 63 0.0 2.0 0.00 0.00 0.00 63 1008.4
20260509094604 48 63 0.0 1.0 0.00 0.00 0.00 63 1008.2
20260509093100 48 63 0.0 0.0 0.00 0.00 0.00 62 1008.2
20260509091557 49 63 0.0 1.0 0.00 0.00 0.00 61 1008.2
20260509090101 49 63 0.0 2.0 0.00 0.00 0.00 61 1008.1